Weather in Shamonino

Russia / Republic of Bashkortostan     54°39′29″N   56°12′44″E
temp.,
°C
wind,
m/s
gust,
m/s
humid.,
%
clouds,
%
prec.,
mm/h
press.,
hPa
HPBL,
m
25 february, thu
thu2523:00−22nnw5119263 0.0 1027283
02:00−25nnw35940 0.0 102984
05:00−28nnw33950 0.0 103146
08:00−29nw12960 0.0 103219
11:00−25w11920 0.0 1032167
14:00−21ssw228824 0.0 1031312
17:00−21ssw349334 0.0 1030257
20:00−25s33920 0.0 103039
26 february, fri
fri2623:00−26sse36940 0.0 1029113
02:00−26sse410910 0.0 1028201
05:00−25sse4109012 0.0 1028210
08:00−23sse379494 0.1 1026224
11:00−20sse368995 0.1 1025299
14:00−16s468874 0.0 1023513
17:00−14sse249180 0.0 1022319
20:00−18s129781 0.0 102120
27 february, sat
sat2723:00−18sse259590 0.1 1020102
02:00−19se389157 0.0 1016137
05:00−17se5118379 0.0 1013289
08:00−15se71494100 0.3 1009538
11:00−13sse5994100 2.2 1007513
14:00−10sse5992100 0.6 1005643
17:00−8sse5893100 1.1 1004594
20:00−10ese5895100 0.4 1004275
28 february, sun
sun2823:00−11se4895100 0.9 1004223
02:00−10se479598 0.7 1003197
05:00−8se379698 1.3 1003181
08:00−7sse379699 0.4 1002147
11:00−1ssw4697100 2.0 999370
14:000sw35100100 0.4 1000368
17:000sw2399100 1.0 1001262
20:00−4nw4697100 0.5 1003186
1 march, mon
mon123:00−8wnw349790 0.6 100689
02:00−11wnw239889 0.1 100750
05:00−10w349694 0.2 1010117
08:00−12w349693 0.3 1012134
11:00−11w349595 0.5 1013248
14:00−10wnw3493100 0.2 1014373
17:00−10wnw4593100 0.4 1015398
20:00−13wnw3796100 0.3 1017226